Showing default

USA 62, 20692

Orbit data source: Space-Track

USA 62, 20692 is an American payload satellite in LEO that was launched on Fri, 08 Jun 1990 UTC via a TITAN 405A launch vehicle from the Air Force Eastern Test Range (AFETR). Payloads include a variety of satellites, spacecraft, and rockets equipped with specific instruments for various scientific and technological missions. These include communications satellites like Starlink; space stations such as the ISS; scientific satellites like the Hubble; Earth observation satellites from companies like Planet Labs, Umbra, and HawkEye 360; GPS; miniature CubeSats for education and research; and military/defense satellites.

Loading next visibility...
USA 62 details
Identifier
20692, 1990-050D
Orbit
LEO
Last TLE update20 hours ago
Origin
Flag of USNRO/NRL (US)
ManufacturerNRL
MissionDefense Sigint
Bus & MotorNOSS B SSU, Unknown motor
Mass~400 kg wet, ~400 kg dry
Launch date (UTC)
1990-06-08 (35 years ago)
Launch vehicle
TITAN 405A
Launch site
Air Force Eastern Test Range (AFETR)
Object type
Payload
Rocket body
Debris
Shape & HBRCyl, 1 m
Radar Cross Section1.178 m², Large (>1 m²)

Expand to show TLE details & history

TLE from 20 hours ago
0 USA 62
1 20692U 90050D   25014.80469361  .00005309  00000-0  42016-3 0  9995
2 20692  63.2971 164.0462 0897868  74.7963 295.0472 13.56590039 34168
Epoch: 2025-01-14T19:18Z
Definitive object data (Epoch: 2025-01-14T19:18:45.527Z)
Latitude-0.00002°
Longitude119.85037°
Altitude819.402 km
Speed7.559 km/s
True Right ascension10h 56m 11s
True Declination0° 00' 00"
Sunlit
Object was in full shadow at TLE epoch
Visualization TLE readout
Latitude9.61857°
Longitude122.54346°
Altitude710.22 km
Speed7.671 km/s
Apparent Right ascension08h 19m 22s
Apparent Declination-23° 23' 22"
Sunlit
Object is in full shadow
Visualization observer readout
Local Sidereal Time15:30:04
Azimuth261.823° W
Elevation-27.935°
Doppler factor1
Orbital elements
Apogee altitude1,713.605 km
Perigee altitude380.259 km
Semi-major axis7,425.069 km
Eccentricity0.0897868
Inclination63.2971°
RAAN164.0462°
Arg. of periapsis74.7963°
True anomaly285.3093°
Mean anomaly295.0472°
Eccentric anomaly290.21983°
Mean motion3.39229 °/min
BSTAR0.00042016
Orbital period106.12 mins
Loading maneuver chart data...
Loading historical data...
Loading historical data...
Loading historical data...
Loading historical data...
Loading historical data...
Loading historical data...
Loading historical data...

USA 62 Visibility forecast

Observer location: undefined°, undefined

Span
Click to sort rows by Start time (UTC) header in descending order
Start Az.
Max El. time (UTC)
Max El. Az.
Max El.
End time (UTC)
End Az.
4 mins2025-01-15 18:48:18.954Z19.286° NNE2025-01-15 18:50:18.954Z51.491° ENE13.355°2025-01-15 18:52:18.954Z77.834° E
7 mins2025-01-15 20:37:18.954Z310.95° NW2025-01-15 20:39:18.954Z243.613° WSW42.367°2025-01-15 20:44:18.954Z157.61° S
4 mins2025-01-16 12:11:18.954Z257.573° W2025-01-16 12:13:18.954Z310.202° NW25.831°2025-01-16 12:15:18.954Z3.422° NNE
|